Wind_Speed
9 10 11 12 14 16 16 18 19 16 16 16 16 15 15 17 15 13 13 13 12 11 10 7 7 7 7 10 10 9 9 8 8 10 9 7 6 5 4 4 5 9 12 14 12 11 10 9 8 7 5 4 3 3 3 3 5 6 8 11 12 11 8 8 9 7 6 7 6 7 7 7 6 7 8 9 10 11 13 14 14 14 14 14 15
8 9 12 12 12 16 16 19 20 15 16 16 15 15 14 15 16 14 13 12 11 12 11 8 7 8 7 8 10 10 10 10 9 9 10 10 9 8 7 5 4 6 10 13 13 11 11 10 9 8 6 6 5 4 3 3 3 6 10 11 11 10 8 8 8 6 6 6 5 6 7 6 6 7 8 9 10 11 13 14 14 14 14 15 16
9 10 12 10 8 13 15 18 19 15 16 15 12 14 15 15 15 13 12 11 10 11 12 7 7 9 8 9 8 9 10 10 11 9 10 12 11 10 9 6 5 5 8 11 13 13 11 11 11 9 7 7 6 6 4 3 3 6 11 11 11 10 8 7 6 6 6 6 6 6 6 6 6 7 8 8 10 11 12 13 14 14 14 15 16
9 9 9 9 6 10 13 15 15 15 19 16 11 14 15 15 16 13 13 13 10 10 12 9 7 8 9 10 9 10 11 11 12 10 10 12 11 11 10 8 7 6 7 10 13 14 13 13 12 10 9 8 7 7 5 4 4 6 11 11 10 10 7 6 6 6 5 5 5 5 5 5 5 6 7 8 10 11 12 13 13 14 14 14 15
9 7 8 10 8 9 12 13 14 14 19 19 14 15 14 14 15 13 13 14 12 9 10 10 9 8 9 10 11 11 11 11 13 12 11 12 11 11 10 10 9 8 8 9 10 13 16 15 14 12 11 10 8 8 6 5 5 6 12 12 11 9 7 6 5 6 5 4 4 5 4 4 5 6 7 8 9 10 11 12 13 13 13 14 15
8 7 8 10 9 10 12 13 15 14 17 18 16 15 13 11 12 12 12 12 10 7 6 8 8 8 9 11 11 11 12 12 13 14 13 12 11 11 11 11 11 10 9 9 9 11 13 15 17 14 12 12 10 9 8 8 6 7 12 12 10 9 7 6 6 6 5 4 4 4 3 3 4 5 7 8 9 9 10 11 12 13 13 14 15
6 7 9 9 8 9 12 14 14 14 15 14 14 12 11 12 10 10 11 9 8 8 7 7 8 9 10 11 11 10 11 13 12 12 13 13 12 11 10 10 11 11 11 11 10 10 10 13 19 18 15 13 12 11 9 9 8 8 12 13 10 9 7 6 7 6 4 4 4 4 2 2 4 5 6 7 8 9 10 11 11 12 13 14 14
6 8 9 8 7 9 12 14 13 13 13 13 14 11 11 13 10 9 11 10 10 12 12 12 11 11 10 10 12 12 11 12 13 12 13 15 15 13 10 10 11 11 10 10 10 10 10 12 17 19 18 15 13 13 11 10 9 8 13 14 11 9 7 6 8 7 4 4 4 4 2 2 3 4 6 7 7 8 9 10 11 12 13 13 14
6 7 8 8 9 10 11 12 12 11 10 11 15 13 10 11 10 11 13 12 12 13 14 15 14 13 13 11 11 13 12 11 13 14 14 14 16 16 13 11 11 10 9 10 10 10 11 12 15 17 18 17 15 14 12 11 10 9 12 15 13 9 8 6 8 7 3 3 5 4 3 2 3 4 5 6 6 7 8 9 10 12 12 13 13
6 5 6 6 8 10 11 12 12 12 11 11 14 13 11 10 10 12 12 11 13 14 14 13 13 13 16 15 12 13 14 13 13 15 17 15 13 15 16 15 15 12 10 10 10 10 11 13 15 16 17 18 17 16 14 13 12 10 12 15 15 11 9 7 8 8 4 5 6 5 4 2 3 4 5 5 5 7 8 9 10 11 12 12 13
5 4 4 4 5 7 9 11 13 14 14 13 14 14 13 13 12 14 14 13 14 14 14 12 10 11 11 15 16 14 14 15 14 15 18 18 15 15 16 17 18 17 14 12 10 10 11 13 16 17 17 18 18 17 15 14 14 13 12 15 15 12 9 7 10 10 7 8 8 6 5 3 3 4 5 5 5 6 8 9 10 11 11 12 12
2 3 4 4 5 6 7 8 11 14 15 14 13 13 14 14 12 13 15 16 16 14 12 12 11 13 15 10 14 12 13 15 16 15 16 18 19 18 17 16 17 18 17 16 14 13 13 13 15 17 18 19 19 19 18 17 17 16 14 17 17 13 11 9 12 13 9 10 9 7 6 4 4 4 4 5 5 6 7 8 9 10 11 11 11
2 2 3 3 4 5 6 7 9 11 12 11 11 11 13 14 14 14 15 16 17 16 15 13 10 10 13 9 10 10 11 13 16 17 17 17 19 20 19 16 15 16 16 17 16 15 16 16 16 17 18 19 20 20 21 20 21 18 15 19 19 14 13 11 14 15 11 11 11 9 7 5 5 5 5 5 5 5 7 8 8 10 10 10 11
1 2 3 3 3 4 5 5 7 10 9 9 10 11 11 14 15 16 16 15 15 17 18 16 10 8 8 6 6 8 12 15 16 17 18 18 17 19 21 19 17 17 17 18 18 17 17 17 17 17 17 19 20 20 21 22 23 20 16 20 22 17 14 13 16 17 12 12 13 11 8 7 6 6 5 5 5 5 6 7 8 9 10 10 11
1 2 3 4 4 4 4 4 5 7 7 8 9 9 11 14 15 16 15 14 16 16 16 16 13 10 7 4 4 4 8 14 17 18 19 20 20 19 21 21 21 20 19 19 18 18 18 18 18 17 17 20 21 19 22 23 23 21 18 22 25 20 16 15 19 19 14 13 14 12 10 8 8 7 6 6 5 5 6 7 7 9 10 10 10
2 2 3 3 4 4 5 5 6 6 7 8 8 8 10 13 15 17 16 16 20 18 15 16 16 13 6 2 3 4 4 9 15 21 23 22 22 22 20 21 22 21 21 20 18 19 20 20 20 20 19 21 21 20 21 23 22 22 20 23 27 24 18 17 21 21 16 15 15 14 12 10 9 8 7 7 6 6 6 7 7 8 9 9 10
2 2 3 3 4 4 5 5 6 7 7 8 9 9 10 11 13 16 17 20 24 21 16 16 18 18 13 6 3 3 3 4 8 15 22 23 23 23 23 23 23 22 23 22 20 21 22 22 22 22 23 23 21 19 20 22 22 22 22 25 28 26 21 19 22 22 17 16 17 15 13 11 10 9 8 8 7 7 6 6 6 7 8 8 9
2 2 2 3 3 4 5 6 7 8 8 9 10 10 11 12 14 15 17 21 24 22 20 20 20 20 21 17 11 7 4 3 2 4 14 23 24 23 23 25 24 23 22 22 22 23 23 24 23 22 23 24 23 20 20 21 23 21 21 24 29 29 24 22 24 23 20 18 18 17 14 12 12 10 9 9 8 7 6 6 6 6 7 7 7
2 3 3 3 3 4 5 6 8 8 9 10 11 12 12 12 13 15 17 19 21 22 23 24 22 21 25 25 23 20 16 9 5 3 4 12 19 21 21 23 24 24 23 22 23 24 23 24 24 24 24 24 24 23 21 21 24 24 20 20 27 32 28 24 26 24 22 21 19 18 15 13 13 11 10 9 8 7 7 6 6 6 6 6 6
2 2 3 3 4 4 5 6 7 8 9 10 11 13 13 13 13 15 18 18 19 22 24 23 20 21 25 25 25 29 28 21 15 10 4 3 9 15 19 22 25 25 25 24 23 24 25 25 24 24 25 24 24 25 24 22 22 25 23 19 24 32 32 27 28 27 24 22 21 19 17 14 14 13 11 11 10 8 7 7 7 7 5 5 5
1 2 3 4 5 5 5 6 7 8 9 10 12 13 14 15 15 16 17 18 20 21 23 22 21 23 22 20 23 28 28 26 23 18 10 6 4 6 12 18 20 23 26 27 26 24 23 24 24 23 23 23 24 24 25 25 22 22 25 23 23 31 35 30 30 30 26 24 22 20 18 16 15 13 12 12 11 9 9 8 8 7 6 6 6
2 2 3 3 4 6 6 8 9 10 10 11 13 14 15 16 16 17 17 18 20 21 23 23 22 23 22 20 21 21 19 19 21 20 15 11 7 4 7 9 11 17 24 27 28 26 23 23 24 25 22 21 23 25 26 27 26 24 25 24 24 30 36 33 32 32 28 26 24 21 19 17 16 15 13 13 12 11 10 9 9 9 8 7 7
3 4 4 4 5 5 6 8 10 11 12 13 14 14 15 16 16 18 18 18 20 21 23 24 23 24 24 23 22 21 19 17 19 21 15 10 8 5 6 8 8 13 21 26 30 29 27 25 24 24 24 22 22 25 27 27 28 25 25 26 24 30 37 35 34 34 30 27 25 22 21 18 17 16 14 14 13 12 12 11 11 11 9 8 7
4 4 5 5 5 6 7 9 10 11 12 13 15 15 16 16 16 17 18 19 19 20 22 24 24 24 25 26 26 25 24 21 22 22 18 15 12 6 6 7 6 7 13 20 27 30 28 27 25 24 26 25 23 25 27 28 29 27 28 29 26 30 39 36 33 35 32 29 27 23 22 20 18 17 16 15 15 14 13 12 12 12 10 10 9
5 6 6 6 7 8 8 10 10 11 13 14 15 16 17 19 18 17 18 19 19 19 21 22 22 23 25 26 28 28 27 25 24 22 19 17 14 8 7 7 3 6 13 14 16 23 26 26 26 25 26 26 22 24 28 29 29 29 30 30 27 30 39 37 33 35 33 30 28 25 23 22 20 18 18 17 17 16 15 14 13 12 11 11 10
7 8 9 9 10 10 11 12 13 14 15 16 17 18 19 20 20 19 19 19 19 20 21 22 22 22 23 25 26 27 28 27 26 24 21 17 13 9 7 6 4 7 12 11 11 15 19 21 26 26 26 27 23 23 27 29 28 29 31 31 27 30 38 37 33 34 33 30 28 26 24 24 22 21 20 20 19 17 16 15 14 13 12 11 10
9 9 9 10 11 12 13 15 16 16 17 17 18 19 18 19 20 21 21 20 20 21 22 22 21 21 22 24 25 26 27 28 28 27 26 23 19 15 9 5 4 5 8 8 8 11 15 19 24 26 26 27 26 24 26 29 27 27 31 31 29 31 36 36 34 33 32 31 29 27 26 25 23 22 22 21 20 18 16 15 14 13 12 11 10
10 10 11 12 13 14 15 16 16 16 17 17 17 18 18 18 19 20 21 21 21 22 23 23 22 21 21 22 24 26 26 27 28 29 29 27 23 21 17 10 6 5 5 6 6 8 14 19 20 25 28 26 26 27 27 27 26 27 30 32 31 32 34 36 35 33 32 32 29 27 27 25 24 24 23 22 20 18 16 15 14 13 12 11 10
11 11 12 12 13 14 16 17 17 17 17 17 18 18 18 19 19 19 21 22 22 22 22 23 23 22 22 22 23 25 26 26 27 28 29 30 27 25 24 20 14 8 5 6 6 6 12 16 16 19 23 25 26 28 28 26 25 27 30 32 32 32 33 35 36 34 33 33 30 28 28 26 25 25 23 21 20 18 16 15 14 14 12 11 10
11 11 12 13 14 15 16 17 17 18 18 18 18 18 18 19 19 20 20 20 22 23 22 23 23 23 23 22 22 24 25 26 26 26 27 29 30 29 28 26 24 18 10 7 8 10 14 15 17 19 14 21 28 28 29 28 26 28 31 32 32 32 32 34 35 35 34 33 30 29 29 28 27 26 23 22 21 19 17 15 15 14 13 11 10
12 12 13 15 16 16 16 17 17 18 18 18 18 18 19 19 19 20 20 20 21 22 22 23 23 23 23 23 23 23 24 25 26 27 27 27 28 30 30 29 28 26 21 12 7 14 18 14 17 21 12 16 28 29 29 29 29 30 30 31 31 31 32 33 34 36 35 34 32 31 30 29 27 26 24 23 21 19 17 16 15 14 13 12 10
13 14 15 15 16 16 16 17 17 18 19 19 19 19 19 20 20 20 20 20 21 21 22 23 23 23 23 23 24 23 24 25 26 26 27 27 28 28 29 30 30 28 27 20 10 14 24 19 18 24 18 11 19 27 30 28 29 30 28 30 31 31 33 33 34 36 36 34 33 32 31 29 28 26 25 23 21 19 18 16 15 14 13 12 11
14 15 16 16 16 17 17 17 18 18 19 19 19 19 19 20 20 21 20 21 22 22 21 22 23 24 24 24 24 24 24 24 26 26 26 27 28 29 30 30 31 30 29 26 16 14 23 24 21 25 21 13 12 20 28 28 28 27 26 28 30 32 35 35 36 37 36 35 34 32 31 29 28 27 25 23 21 19 18 17 15 14 13 12 11
15 15 16 16 17 17 18 18 19 19 19 20 20 19 20 21 21 22 21 21 22 22 22 22 22 23 25 25 25 25 24 25 26 27 27 27 27 28 30 30 31 32 31 30 22 15 18 21 22 23 20 14 13 17 25 28 29 27 25 26 30 34 36 37 38 38 36 35 34 32 31 30 28 27 25 23 20 19 19 17 16 15 13 12 11
15 16 16 17 17 18 18 19 19 20 19 19 20 20 21 22 22 23 22 22 23 23 23 23 23 24 25 26 25 25 25 25 26 27 27 28 28 28 29 29 29 31 32 32 28 22 19 20 23 24 20 16 17 21 26 29 30 29 25 25 30 35 37 38 38 38 37 35 32 31 31 29 28 27 25 23 21 20 19 18 16 15 13 12 11
15 16 16 17 18 18 20 20 20 20 20 20 21 21 21 23 24 24 24 24 24 24 24 24 24 25 26 27 26 25 25 26 26 27 27 28 28 28 29 29 29 30 32 33 33 29 23 20 24 28 22 18 21 27 29 29 30 30 28 27 31 34 36 37 38 37 36 33 31 31 31 29 28 27 25 23 22 21 19 18 16 15 14 13 11
16 17 17 17 18 19 20 20 20 20 20 21 21 22 22 23 24 25 25 25 25 25 26 25 25 25 26 28 28 26 26 26 26 25 25 27 28 29 29 29 29 30 30 32 33 32 28 24 24 26 23 20 23 29 32 32 29 26 26 28 31 31 30 33 37 38 36 33 33 32 31 29 28 27 25 24 23 21 19 18 17 16 14 13 11
16 17 17 17 18 19 20 20 21 21 21 22 23 23 23 23 24 26 26 26 26 26 27 27 27 27 27 28 28 28 27 27 27 27 25 25 27 29 31 30 28 29 29 30 30 31 31 29 25 23 22 24 27 27 31 35 32 29 28 26 26 27 27 31 35 36 36 36 35 34 32 30 29 27 26 24 22 21 19 19 18 16 15 13 12
16 16 17 18 19 20 20 21 22 22 22 23 24 24 24 24 25 26 26 27 27 27 27 28 28 29 29 28 29 30 29 28 28 29 29 28 26 27 30 32 30 29 28 28 28 28 29 28 26 23 22 27 29 25 29 36 33 31 32 29 25 25 28 32 35 36 37 38 36 34 33 31 29 27 25 23 22 21 20 19 19 17 16 14 13
15 17 17 19 20 20 21 22 23 23 23 24 24 24 24 24 24 25 25 26 27 27 28 29 29 29 29 30 30 30 31 31 29 29 30 31 29 27 27 29 30 31 30 27 26 26 27 25 25 24 23 26 28 24 26 32 30 28 33 35 32 31 31 32 34 37 39 39 37 35 33 31 29 27 25 24 23 22 21 20 20 19 17 15 14
15 17 18 19 20 20 22 23 23 24 24 24 23 24 24 24 24 25 25 25 26 26 27 28 29 29 29 30 31 31 32 33 34 33 32 32 32 31 29 27 26 27 30 29 26 25 26 24 23 23 23 24 27 26 26 30 30 30 35 36 33 32 32 29 30 35 40 41 39 36 35 33 32 30 28 27 27 25 24 23 22 21 19 17 15
16 17 17 18 18 20 21 23 24 25 25 24 24 24 26 27 27 28 29 30 30 29 29 28 28 28 29 29 30 31 32 34 36 38 38 37 37 37 37 35 30 26 26 26 25 25 25 23 22 23 22 23 28 31 30 32 33 34 37 35 29 29 28 23 22 28 36 39 38 36 36 35 33 32 31 31 31 29 28 27 25 22 19 18 15
16 16 16 16 17 19 21 23 24 25 26 26 26 27 28 29 30 31 32 32 32 31 31 30 30 29 30 30 30 31 31 33 34 37 39 40 40 41 42 42 40 36 30 26 24 25 24 23 22 23 23 24 31 36 34 33 34 36 39 37 32 32 30 23 19 24 34 40 38 35 34 35 35 35 34 34 33 31 30 28 25 21 19 17 15
15 16 16 16 17 19 21 23 24 26 27 26 27 28 29 30 31 32 33 33 32 32 31 31 31 31 31 31 31 31 32 32 31 32 35 37 38 40 43 45 46 45 41 35 29 26 24 23 23 26 26 25 29 34 35 35 36 36 36 36 35 35 33 28 25 26 34 41 39 33 32 34 35 34 34 34 33 31 29 27 23 20 18 16 15
15 15 15 16 18 20 22 24 25 26 27 27 28 29 30 32 31 32 33 33 32 32 32 32 32 33 33 33 32 33 33 33 33 32 32 34 35 35 39 44 48 48 48 45 41 34 29 26 26 28 29 27 27 32 37 38 38 37 34 33 34 35 34 33 32 31 35 42 40 32 28 31 33 32 31 32 32 31 28 26 23 20 17 16 15
15 14 15 16 19 21 23 25 26 27 27 28 29 30 31 33 34 35 36 35 33 32 33 33 34 34 35 34 34 34 33 33 34 33 31 31 32 31 32 37 43 48 48 48 48 45 38 32 30 30 31 32 34 38 41 42 42 43 42 39 39 38 36 33 31 29 33 42 42 31 23 26 32 30 29 29 29 29 27 24 23 19 15 16 15
13 12 15 17 19 21 24 26 27 28 28 28 30 31 33 34 35 36 38 37 36 35 34 34 34 35 36 36 36 36 35 34 35 35 33 32 32 31 31 30 34 40 42 43 44 45 43 39 37 34 32 33 35 38 42 45 46 48 49 47 44 40 33 26 24 24 30 38 40 29 20 24 31 29 25 25 26 27 25 23 21 18 16 16 16
13 14 16 18 19 22 25 27 28 29 29 29 30 31 32 33 34 35 36 35 36 36 35 34 34 35 36 38 39 38 38 37 36 36 37 37 37 37 35 33 31 32 35 38 38 40 42 43 42 40 36 32 31 33 40 45 47 45 43 38 35 33 28 22 21 25 30 36 39 31 21 22 30 29 23 21 23 26 26 23 21 18 17 16 16
13 15 17 19 20 23 26 27 28 29 29 28 29 31 32 33 34 35 35 34 35 35 36 35 35 35 36 37 38 38 38 38 37 37 38 39 40 40 37 34 33 31 32 33 34 36 38 40 43 45 42 37 34 35 40 45 48 46 39 32 32 35 30 20 17 23 29 35 37 32 22 22 29 29 22 20 23 25 25 23 21 18 17 17 16
13 15 18 20 22 24 26 27 28 29 30 30 30 32 33 34 35 36 36 36 35 35 35 35 35 36 36 36 37 38 38 37 36 36 37 38 40 41 37 33 32 32 31 29 29 30 32 34 40 45 44 40 36 37 42 46 49 48 42 37 38 39 33 23 19 21 23 29 36 31 21 21 28 27 21 18 19 23 24 22 20 19 18 17 16
13 16 19 21 23 25 27 28 29 30 31 31 30 30 32 32 33 34 36 36 36 35 35 35 35 36 36 36 37 38 40 39 38 37 37 37 39 40 36 32 30 31 31 29 27 28 28 31 37 41 42 40 36 35 40 46 50 51 48 45 44 41 34 28 26 22 14 19 34 34 22 21 29 28 23 18 12 15 22 22 19 19 18 16 15
Wind_Direction
216 206 207 217 220 218 213 205 202 202 198 194 199 195 191 202 212 216 223 232 214 188 188 198 213 218 218 213 204 194 187 199 201 183 193 206 195 204 207 189 181 188 185 176 179 181 178 185 184 184 184 177 174 158 167 154 136 145 130 121 122 116 104 83 68 64 71 72 76 83 80 76 63 50 43 36 37 40 43 46 45 44 43 43 44
224 210 209 216 221 223 221 209 205 206 200 204 208 199 196 204 212 218 224 232 214 188 182 185 214 220 225 231 219 206 196 198 205 193 202 215 209 205 197 189 180 189 194 182 180 185 184 187 190 190 191 192 190 187 192 168 145 151 139 128 125 119 108 90 70 72 85 78 83 94 90 78 59 44 38 36 41 45 47 47 45 44 43 44 46
229 224 221 219 211 214 220 210 210 216 205 211 217 201 203 205 208 218 223 231 224 193 182 187 214 215 219 236 239 224 209 202 206 204 206 210 204 199 193 195 206 206 202 194 187 187 189 190 193 194 196 199 191 202 222 181 167 162 147 135 130 125 115 94 76 86 95 84 91 103 95 75 54 38 36 40 45 49 50 48 46 45 45 45 48
232 233 230 230 211 199 212 210 212 216 209 221 223 199 210 211 204 215 222 229 235 204 188 191 212 223 222 224 232 228 222 215 205 203 209 209 203 197 199 200 206 217 211 206 200 192 191 190 197 203 200 203 198 201 219 195 194 177 154 144 137 132 123 102 85 103 106 89 99 107 95 69 46 38 41 47 50 53 52 50 49 48 47 47 50
226 222 219 221 219 212 215 212 210 212 218 234 231 199 206 215 208 215 222 231 242 222 191 183 192 224 240 229 224 220 223 222 209 208 210 208 209 204 204 205 203 210 208 211 209 198 198 194 196 206 200 202 205 201 205 198 211 194 163 150 143 141 132 114 104 120 117 108 117 111 95 65 42 42 49 54 56 57 54 53 53 51 50 50 52
226 218 217 211 213 222 224 215 209 214 225 239 237 208 200 213 213 216 227 238 247 236 203 190 192 216 244 248 236 219 219 228 217 205 206 206 209 209 204 206 207 205 201 205 210 204 210 203 196 201 202 202 205 203 205 200 212 204 171 155 148 148 139 126 131 133 118 121 135 122 96 62 44 49 56 60 61 60 57 57 57 56 55 54 55
260 243 236 222 220 225 223 220 216 218 219 227 238 228 215 219 219 223 229 233 238 239 226 215 221 223 233 249 248 234 222 230 227 207 208 210 207 213 211 208 208 205 201 205 212 213 218 210 200 199 202 206 206 206 209 205 211 207 178 163 155 153 146 142 148 141 117 129 148 138 113 66 54 59 62 65 65 62 59 61 62 61 59 58 58
293 268 252 234 236 233 226 230 229 224 219 222 233 233 224 217 218 238 234 223 228 237 227 212 221 228 229 240 244 246 237 226 229 222 216 212 208 213 213 207 208 207 209 213 216 216 215 213 208 205 204 206 206 204 208 209 210 207 183 170 164 159 150 148 158 154 127 141 163 156 142 89 73 72 70 71 70 66 64 65 66 65 64 62 61
292 284 272 247 240 236 229 234 231 227 230 238 234 226 226 212 209 235 238 232 233 238 230 210 211 220 215 223 234 241 245 235 227 226 229 223 207 207 212 212 214 212 211 215 218 223 222 216 212 213 213 211 207 204 204 207 207 207 191 175 169 165 150 148 166 171 160 163 176 172 165 132 98 86 82 81 76 72 69 71 69 68 68 65 64
273 279 282 264 255 245 235 234 231 225 227 241 237 225 225 218 217 230 230 233 242 251 250 224 214 219 206 202 218 230 237 245 235 223 231 236 217 209 215 213 211 211 211 215 221 230 229 219 214 217 220 216 213 211 203 201 203 207 200 182 172 166 155 159 179 186 191 185 182 183 181 156 122 103 93 90 84 79 74 75 73 70 70 69 67
267 273 278 274 275 261 251 245 240 233 228 236 239 230 225 221 228 241 241 236 240 253 270 271 260 262 241 201 201 216 225 239 244 229 226 231 229 223 220 215 211 209 212 219 225 234 232 220 214 214 218 218 218 216 205 200 201 204 208 193 181 175 170 180 192 191 187 181 182 189 189 171 142 117 105 104 93 86 81 79 77 73 72 71 70
263 288 283 274 274 268 273 265 251 242 236 240 241 235 231 225 229 245 252 246 242 247 266 290 288 283 287 238 194 203 217 228 240 242 233 226 229 232 226 220 213 208 211 217 220 231 235 225 217 216 219 220 220 219 212 206 202 201 209 200 190 189 192 197 195 190 184 180 185 195 194 179 157 133 117 117 104 93 87 83 80 77 76 74 73
273 292 289 280 277 275 287 285 266 251 245 251 252 247 237 229 230 238 248 249 248 250 252 271 284 278 285 257 206 204 214 225 233 238 242 236 233 235 234 230 222 215 215 215 212 220 230 228 223 221 224 222 220 221 217 216 212 211 214 198 191 198 205 202 192 191 194 189 189 198 198 184 165 149 134 130 117 104 94 89 86 81 80 77 75
311 307 299 282 277 272 278 280 280 272 263 265 262 263 255 237 233 238 245 250 251 252 248 252 258 261 274 261 223 219 222 230 232 230 235 242 242 236 235 236 233 227 223 216 209 211 221 227 226 225 225 222 221 221 219 221 219 223 222 200 193 199 205 201 190 192 200 196 193 199 199 188 171 159 150 147 134 118 103 94 90 86 83 80 78
326 317 308 293 288 283 281 271 277 280 275 274 267 269 268 252 244 243 243 250 254 250 245 242 236 239 267 279 231 215 221 229 233 232 228 232 240 236 231 234 234 231 227 220 212 212 216 222 226 224 218 218 222 222 220 222 219 220 219 204 199 197 196 196 189 191 199 197 196 200 199 189 176 167 161 158 148 131 113 102 95 91 88 84 80
305 301 306 306 299 291 293 282 276 278 271 273 272 263 264 262 257 253 244 244 253 252 244 240 234 229 240 278 241 229 220 212 218 227 226 224 231 232 227 229 232 230 227 224 221 221 219 219 224 223 216 216 223 224 222 223 220 219 215 207 205 198 192 193 189 192 199 197 198 200 199 191 179 173 168 164 156 140 121 111 101 93 92 88 82
279 288 301 303 302 295 295 291 282 285 281 277 275 265 261 262 263 263 250 241 246 250 246 239 230 224 222 225 250 241 222 206 208 220 222 222 227 229 225 225 229 228 225 224 225 226 222 219 223 225 220 217 222 226 224 223 220 219 214 208 206 199 193 191 188 193 201 200 200 201 200 192 181 176 172 168 161 148 131 120 109 97 93 87 79
260 265 282 285 297 296 292 294 287 286 287 283 280 273 264 254 250 256 255 247 245 245 246 241 231 225 223 221 231 252 286 315 311 218 214 219 225 227 225 225 228 228 223 220 223 226 221 216 219 225 224 217 216 221 223 221 216 213 210 206 204 199 195 192 188 193 202 203 201 201 199 193 184 179 175 171 164 154 141 129 117 103 94 83 75
240 241 260 270 276 281 280 285 284 283 283 280 279 277 272 262 249 246 248 249 244 239 241 241 235 233 232 228 232 247 265 277 281 286 225 220 225 228 231 229 228 228 226 222 222 223 221 217 216 222 224 218 212 215 220 221 216 211 206 206 204 198 194 193 190 193 202 203 201 201 199 194 186 180 177 173 168 159 148 136 124 115 108 92 79
239 242 250 261 264 270 272 273 277 279 278 276 275 274 272 269 262 255 250 246 242 240 241 239 233 234 238 236 235 242 251 256 259 267 289 244 223 228 234 235 232 227 224 225 225 223 221 218 215 217 221 219 214 215 217 219 220 214 207 210 209 198 193 192 190 193 203 203 200 200 198 195 188 181 180 175 169 163 150 142 136 134 132 116 105
250 252 252 258 262 268 270 269 272 274 274 273 271 271 272 271 269 268 263 255 247 242 241 239 234 233 235 235 235 240 246 252 253 252 257 265 238 218 226 230 236 232 224 223 227 227 222 218 216 215 216 218 218 218 218 219 224 220 213 214 214 201 194 192 191 194 202 202 198 199 197 194 189 183 182 177 171 165 153 148 151 151 147 139 139
244 253 258 251 253 260 265 266 267 267 267 268 271 272 273 274 275 274 273 270 262 252 246 242 237 235 232 225 227 233 238 242 242 238 243 254 252 253 231 218 227 232 226 222 223 227 225 219 216 213 214 219 222 221 220 221 222 223 220 215 211 205 196 192 194 196 201 201 197 197 195 193 190 185 183 179 173 166 158 157 159 160 159 155 154
249 258 262 252 252 258 262 265 268 269 267 265 268 271 271 271 272 273 272 272 270 266 258 250 241 237 234 229 227 227 227 229 231 227 227 234 240 258 255 247 244 232 227 224 223 225 223 219 217 214 212 217 225 223 220 222 220 220 225 219 211 207 199 194 195 196 200 201 196 194 193 191 191 187 183 180 175 168 165 165 165 166 170 168 165
254 257 259 255 261 263 266 270 272 275 273 271 269 270 272 272 270 269 269 268 268 268 266 259 248 238 236 236 234 231 230 232 235 231 226 228 233 243 252 260 279 271 257 241 229 224 219 215 216 215 213 215 226 227 219 220 218 219 227 224 216 209 200 195 195 195 199 200 195 193 191 187 188 187 183 180 176 174 171 170 171 174 175 171 171
262 262 263 263 267 267 268 271 272 273 274 275 273 271 272 273 272 271 269 268 268 267 267 265 257 246 240 238 237 235 234 234 236 234 231 230 231 238 252 251 247 278 283 276 252 237 225 217 216 217 215 213 223 229 220 217 216 218 226 223 215 209 201 196 196 197 200 199 194 192 189 185 186 186 182 179 179 178 176 176 178 180 181 179 183
265 267 267 267 266 266 266 267 269 271 271 272 272 272 271 271 271 271 271 270 269 268 268 268 266 259 249 242 237 236 234 233 234 232 229 229 226 222 234 249 236 245 262 275 278 259 238 224 221 222 219 213 217 226 218 212 212 217 222 219 210 206 202 198 197 198 201 199 194 192 189 187 187 185 181 181 182 182 182 185 189 190 193 197 207
263 266 267 267 267 268 271 272 273 273 273 274 273 272 273 272 270 269 270 272 270 268 267 267 268 266 258 250 243 240 238 235 235 233 229 227 229 227 222 235 255 252 257 258 252 251 254 246 230 224 223 216 215 220 214 207 209 216 218 214 205 201 203 202 200 200 203 201 194 192 191 189 187 184 183 185 186 187 188 193 198 201 205 213 223
259 263 266 268 270 272 275 277 277 276 276 277 277 275 274 273 273 271 270 271 271 269 267 266 267 266 264 259 250 245 243 239 236 235 233 229 230 234 231 225 229 249 264 258 232 227 250 259 244 227 225 219 211 211 206 201 205 210 209 206 201 199 203 204 201 201 204 202 197 194 191 189 187 186 187 190 190 190 194 199 204 208 212 217 223
259 263 268 270 271 275 276 277 277 277 277 277 278 277 276 275 274 274 273 271 270 270 268 267 266 264 263 260 253 249 247 244 240 239 238 236 234 235 235 230 226 232 247 251 247 224 232 249 256 246 230 213 203 200 196 193 198 200 199 199 198 198 202 204 202 201 203 202 198 195 192 189 189 189 190 193 192 193 198 203 208 211 213 215 219
260 263 268 271 275 277 278 279 279 277 277 277 277 276 276 277 275 273 274 273 272 271 270 268 266 264 262 259 255 252 250 247 244 241 239 238 237 237 238 234 229 228 229 239 249 242 237 237 252 268 248 200 194 191 189 191 192 192 194 196 197 197 200 203 202 201 203 202 198 195 194 192 191 192 192 193 195 197 202 207 210 211 211 211 214
261 266 269 273 276 278 278 280 281 279 278 277 277 276 275 274 274 275 275 275 275 273 271 270 269 265 262 260 257 253 252 250 246 244 239 236 237 236 236 234 230 228 228 231 244 244 242 227 229 253 254 191 187 184 185 188 186 188 193 195 197 198 198 200 201 202 202 201 198 196 195 194 193 193 194 196 198 201 207 211 211 209 209 209 212
263 268 272 273 274 277 280 281 281 280 279 278 276 276 275 273 272 273 274 274 275 273 270 269 270 267 262 261 259 255 252 250 247 246 242 238 237 236 234 232 230 230 229 229 237 246 245 236 224 240 249 215 188 179 179 181 179 186 195 196 197 197 195 197 200 202 202 200 198 197 196 195 195 195 196 198 202 207 211 212 211 209 208 209 212
264 267 270 272 274 277 280 282 282 280 280 280 279 276 275 274 273 273 273 272 273 273 272 270 269 269 265 261 260 257 254 250 246 244 242 240 238 236 235 231 229 230 228 227 230 242 247 245 240 244 244 230 202 185 180 174 172 182 194 196 196 194 193 195 198 200 201 200 199 198 197 196 196 197 198 201 207 212 213 212 210 209 209 210 213
262 266 268 271 274 277 279 280 281 280 279 279 280 278 276 274 272 272 272 271 271 272 274 273 272 272 271 266 262 258 255 252 248 244 240 239 237 235 233 229 227 228 226 225 227 233 242 240 241 247 239 219 209 200 189 178 173 181 192 194 194 195 195 195 196 198 201 202 201 199 198 198 198 199 200 204 212 214 212 210 209 208 210 213 216
262 265 269 273 275 276 278 280 280 280 280 279 279 279 279 277 275 272 271 270 269 269 269 270 271 272 274 273 269 264 259 257 253 248 242 239 237 236 234 229 227 228 227 225 225 229 236 233 234 240 236 217 208 205 197 185 179 185 193 194 192 193 194 194 195 198 200 201 202 201 201 201 200 202 203 208 214 214 211 209 209 210 213 215 219
264 266 269 273 276 276 277 278 278 278 280 280 280 279 277 277 277 275 273 270 268 268 267 266 266 267 270 273 273 270 265 263 259 252 245 242 239 238 237 233 230 231 230 227 224 226 231 231 232 233 230 218 204 199 195 186 181 186 190 188 186 188 190 191 195 199 200 202 203 203 204 203 202 204 207 211 214 212 210 209 210 212 215 219 224
265 268 272 273 274 276 276 276 278 279 281 282 282 281 278 276 276 275 274 271 269 269 268 267 266 265 265 268 271 271 267 266 266 261 252 245 242 241 241 238 233 232 231 228 226 225 226 227 229 228 227 217 201 193 189 181 174 178 182 181 181 182 184 187 194 199 199 200 203 205 205 205 206 208 210 213 213 209 209 211 212 214 219 224 228
267 269 273 274 275 276 277 277 278 278 280 281 280 280 279 279 279 278 276 274 271 268 266 265 266 266 266 265 266 268 267 264 264 266 265 256 247 242 242 241 238 234 232 228 224 223 223 225 225 221 214 203 192 187 186 182 173 168 171 173 175 179 184 188 193 197 198 198 201 203 204 205 208 210 211 211 210 208 209 211 214 218 221 226 231
269 273 276 278 279 279 280 280 280 281 281 280 280 279 279 278 278 278 279 279 278 275 271 267 263 262 263 264 264 265 266 265 262 262 265 266 260 250 243 242 242 240 237 231 222 218 219 222 222 216 203 193 191 188 183 179 174 170 168 163 163 175 188 194 195 194 195 197 198 200 203 206 208 209 210 210 209 210 211 213 217 221 224 228 233
271 277 279 280 281 281 281 281 281 280 278 277 277 279 279 278 277 277 277 277 278 277 276 275 271 266 264 262 262 263 263 265 265 261 260 262 265 263 253 246 242 242 242 236 225 218 217 217 216 212 200 191 193 191 178 171 168 171 173 167 167 177 187 194 197 194 192 194 196 197 201 204 205 206 206 208 210 211 213 216 220 222 225 229 233
275 279 281 283 286 288 289 288 286 283 281 277 276 277 278 278 277 279 279 280 281 281 279 278 276 274 270 266 264 262 262 262 264 264 262 260 260 263 263 259 250 245 244 240 229 218 217 218 216 208 199 193 193 188 180 178 174 173 175 173 174 179 181 185 194 195 194 194 194 194 198 201 201 202 204 206 208 210 213 217 220 222 226 229 233
278 281 283 287 293 297 298 297 294 292 290 286 284 282 281 280 281 282 283 283 285 287 286 284 282 279 276 274 270 267 264 263 263 264 265 264 261 261 262 264 263 257 251 245 237 225 217 217 216 207 197 195 193 188 186 189 184 175 174 175 173 171 171 173 185 195 197 195 191 191 196 200 201 203 206 208 209 210 212 215 218 221 225 229 235
281 284 288 294 299 301 301 299 296 294 291 288 287 285 283 283 283 284 284 283 282 282 282 282 282 282 280 278 276 274 271 268 265 264 265 265 264 261 259 260 261 262 260 256 250 240 225 215 216 215 207 198 194 191 188 188 185 179 177 177 171 167 170 173 178 192 198 196 191 190 195 200 203 205 207 209 212 213 214 217 219 222 227 232 234
287 291 296 302 304 303 301 298 295 292 291 289 286 286 285 286 287 287 286 284 281 278 276 275 275 276 278 279 277 275 273 272 270 267 265 265 266 263 259 257 258 260 260 260 258 251 236 221 217 219 216 205 195 191 187 184 184 182 180 178 175 174 178 182 183 190 196 195 190 189 194 199 202 205 206 209 214 216 217 220 221 223 229 231 227
289 295 301 305 305 304 300 297 293 291 289 289 287 287 287 288 290 291 290 287 282 277 273 271 270 269 271 273 274 272 271 271 272 270 267 267 269 267 260 257 257 257 258 259 259 257 249 235 225 223 218 209 200 196 190 186 183 181 180 181 181 182 186 190 192 191 191 191 189 186 192 199 200 203 206 209 214 217 219 223 223 222 225 226 224
290 299 306 307 304 301 298 294 292 289 287 287 287 287 287 288 288 290 291 289 284 279 275 271 268 267 265 266 268 269 268 267 268 269 268 267 268 269 264 256 252 253 255 257 258 259 256 245 236 233 227 216 207 201 194 190 187 184 184 184 186 189 194 195 196 194 189 189 188 184 186 197 198 200 206 209 214 220 222 221 221 219 220 226 230
298 306 306 303 298 296 295 293 291 289 287 287 286 286 287 287 287 287 288 287 283 280 276 272 268 266 264 264 264 265 265 264 263 263 265 266 268 274 276 267 254 250 250 253 255 255 254 248 242 240 236 224 212 202 195 195 194 192 190 189 188 190 192 190 188 189 189 189 189 184 183 193 194 196 203 207 213 222 223 219 218 218 222 229 235
309 309 305 301 298 295 294 292 291 289 288 287 287 287 288 288 289 288 285 284 282 278 275 272 270 266 264 263 262 261 261 261 259 259 262 265 268 274 280 280 272 258 249 249 252 254 252 249 245 245 244 237 222 208 199 198 198 193 189 188 186 182 178 173 172 178 184 188 191 190 183 184 190 192 194 199 208 217 218 213 210 215 223 229 234
314 310 306 302 299 296 293 292 291 290 291 291 290 290 290 290 291 290 287 284 281 277 275 273 271 269 267 264 261 259 258 258 257 258 259 262 266 270 273 277 279 274 261 251 249 252 252 250 247 244 244 242 233 219 210 204 199 192 184 180 180 177 173 169 168 176 182 185 190 193 186 177 184 187 184 190 204 211 210 204 202 210 222 225 232
312 309 307 303 299 297 294 294 295 294 293 293 293 292 291 291 290 287 285 283 280 277 275 273 270 269 267 265 261 258 257 257 257 256 256 257 261 265 268 272 274 274 270 259 249 249 249 247 245 240 236 236 232 220 212 207 198 190 186 186 183 179 176 175 171 169 177 184 188 190 186 176 180 181 171 169 190 201 199 196 198 208 218 221 228
311 306 305 303 301 299 297 297 296 295 293 292 292 292 292 293 292 287 283 279 275 274 273 271 270 268 265 264 261 258 257 258 257 256 254 254 256 259 263 267 267 267 268 265 256 249 244 240 237 232 227 226 224 215 208 205 199 195 196 197 190 183 181 177 167 157 162 188 190 188 184 177 177 178 170 158 162 190 196 196 199 208 216 218 221
Height
816 820 823 822 821 823 825 825 826 826 827 828 829 829 830 831 830 830 830 829 830 831 832 833 834 834 835 835 836 836 837 838 840 840 839 840 841 842 843 843 844 845 846 847 848 849 850 851 852 852 852 852 852 853 853 853 854 854 855 855 856 856 857 857 858 858 858 858 857 857 856 856 856 856 856 855 854 853 852 851 851 850 849 848 847
817 820 822 821 821 823 825 825 825 826 827 828 829 829 830 831 830 830 830 830 830 831 831 833 833 834 834 834 835 836 837 838 839 840 838 839 840 841 842 843 844 845 845 846 847 848 849 850 851 852 852 852 852 853 853 853 854 854 855 855 856 857 857 857 858 858 858 858 858 857 857 857 857 857 856 856 855 854 853 852 851 851 850 849 848
816 819 821 821 821 823 824 824 824 825 826 827 829 829 829 830 830 831 830 830 830 830 831 832 833 833 834 834 835 835 836 837 838 839 839 838 839 840 841 842 843 843 844 845 846 847 848 849 850 851 852 852 852 853 852 853 853 854 855 855 856 857 857 858 858 858 858 858 858 858 857 857 857 857 857 856 856 855 854 853 852 852 851 851 850
815 818 819 819 819 821 822 821 822 824 826 826 827 828 829 830 830 831 830 830 830 830 830 831 832 833 833 834 834 835 835 836 837 838 839 838 837 839 840 841 842 842 843 843 844 846 847 848 849 850 851 852 852 852 852 853 853 854 854 855 856 857 857 858 858 858 858 858 858 858 858 858 858 857 857 857 856 855 855 854 853 853 853 852 851
814 816 818 818 818 820 820 820 822 824 826 826 826 826 827 829 830 830 830 830 830 830 830 830 832 833 833 833 833 834 835 836 836 837 839 838 837 838 839 840 841 841 842 842 843 844 845 847 848 849 850 851 852 852 852 853 853 853 854 855 856 857 857 857 858 858 858 858 858 858 858 858 858 858 858 858 857 856 855 855 854 854 854 853 853
812 814 816 818 819 821 821 821 822 824 826 827 827 826 825 827 829 830 830 830 829 830 830 830 831 832 832 832 832 833 834 835 835 836 837 838 837 836 838 839 840 840 841 842 842 843 844 845 846 848 849 850 851 851 852 852 853 853 854 855 855 856 857 857 857 858 858 858 858 858 859 858 858 858 858 858 858 857 856 855 855 854 854 854 854
812 812 814 817 819 821 821 821 821 824 826 827 827 826 825 826 828 829 830 829 829 829 830 830 831 831 832 832 831 832 833 834 834 835 836 837 838 837 837 838 839 840 840 840 841 842 842 843 844 846 847 849 850 851 851 852 852 852 853 854 855 856 856 857 857 858 858 858 858 858 859 859 858 858 858 859 858 857 857 856 855 855 855 855 854
812 812 814 816 818 819 820 820 821 822 823 824 825 826 826 825 826 829 830 829 829 829 829 829 830 830 831 831 831 831 832 833 834 834 835 835 837 837 837 837 837 838 839 839 840 841 841 842 843 844 846 847 848 849 850 851 851 852 853 853 854 855 856 856 857 857 858 858 858 858 858 859 858 858 859 859 858 858 857 857 856 855 855 855 855
810 812 813 814 816 817 818 818 819 820 821 822 823 825 825 824 824 828 830 829 829 828 828 828 828 828 828 830 831 831 831 832 833 833 834 834 835 836 837 837 837 837 837 838 839 840 841 841 842 843 844 845 846 848 849 850 851 851 852 853 854 855 855 856 857 857 857 857 858 858 858 858 858 858 859 859 858 858 858 857 857 856 855 855 855
810 811 812 813 814 815 816 816 818 819 820 821 822 823 824 823 823 826 827 828 827 827 827 826 827 826 826 827 829 830 831 831 832 832 833 833 834 835 836 837 837 837 837 837 838 838 840 841 842 842 843 844 845 846 847 849 850 851 851 852 853 854 854 855 856 857 857 857 858 858 858 858 858 858 858 859 859 858 858 857 857 856 855 855 855
811 811 812 813 813 814 814 815 816 817 818 819 821 822 823 822 823 825 826 827 827 826 826 826 826 825 825 824 825 828 830 831 831 831 831 832 832 833 834 835 835 836 837 838 838 838 838 840 840 841 842 843 844 845 846 847 849 850 850 851 852 853 854 854 855 856 857 857 857 858 858 858 858 858 858 859 859 858 858 858 857 857 856 855 856
813 812 812 812 813 813 813 814 815 816 817 818 820 821 821 820 821 823 825 826 826 826 826 825 824 824 824 824 824 825 827 829 830 830 830 831 831 832 832 833 833 834 835 836 838 837 837 838 839 840 840 841 842 843 845 846 847 848 849 850 851 852 852 853 854 855 856 856 857 857 858 858 858 858 858 859 859 859 858 858 858 857 857 856 856
814 813 813 813 813 813 813 814 814 815 816 817 818 819 820 819 819 821 823 825 825 826 826 825 824 824 823 823 823 823 825 827 829 829 829 830 830 830 830 831 831 832 832 833 835 836 836 836 837 838 839 839 840 842 843 844 845 847 847 848 849 850 851 852 853 854 855 855 856 857 857 857 857 858 858 859 859 859 859 859 858 857 857 857 857
815 814 813 813 813 813 813 813 813 813 814 815 817 818 818 818 818 818 820 823 824 825 825 825 825 824 823 824 823 823 824 825 826 827 828 828 829 829 829 829 830 831 831 831 832 834 835 835 835 837 837 837 838 840 841 842 844 845 846 847 848 849 850 850 851 852 853 854 855 856 856 856 857 857 858 858 859 859 859 859 858 858 857 857 857
815 814 814 813 812 812 812 812 812 812 813 814 815 816 817 817 817 818 819 821 823 823 823 823 824 824 824 825 824 823 824 824 824 825 825 826 827 827 827 828 828 829 830 830 830 832 833 834 834 834 835 835 835 837 838 839 841 843 844 845 846 847 848 849 850 851 852 853 854 855 855 856 856 856 857 858 858 859 859 859 859 858 858 858 858
814 814 813 813 813 812 812 811 811 812 812 813 813 814 814 814 814 816 818 820 820 821 821 821 822 823 824 824 823 823 823 822 821 821 822 823 824 824 825 826 826 827 828 828 829 830 831 832 833 833 834 833 833 835 836 837 838 840 842 843 844 846 847 848 849 850 851 852 853 854 855 855 855 855 856 857 858 858 859 859 859 858 858 858 858
813 813 813 813 813 812 812 812 811 811 811 812 812 813 813 813 813 814 817 819 818 819 820 820 820 820 821 821 821 821 820 818 819 819 819 820 821 821 822 823 823 824 825 825 827 828 829 830 831 832 832 832 832 832 833 835 835 837 839 840 842 844 845 846 848 849 850 851 852 853 854 854 854 855 855 856 857 858 858 859 859 859 858 858 858
813 813 813 813 813 813 812 812 812 812 812 812 812 812 812 813 813 814 816 817 817 818 818 818 818 818 818 817 818 819 818 818 819 819 818 817 818 819 819 820 821 822 822 823 824 825 826 827 829 830 830 830 830 830 831 832 833 834 835 837 839 842 843 845 846 848 849 850 851 852 853 854 854 854 855 855 856 857 857 858 859 859 859 858 858
812 812 813 813 813 813 813 813 812 812 812 812 812 812 812 813 813 814 815 815 816 816 815 815 816 816 816 815 815 817 818 819 819 818 818 817 816 817 818 818 819 820 820 821 822 823 823 824 826 827 828 828 828 829 829 830 830 831 833 834 836 839 841 843 845 846 847 849 850 851 852 853 853 853 854 855 855 856 856 857 858 859 859 859 858
811 811 812 812 812 813 813 813 812 812 812 812 812 812 812 812 813 813 813 814 814 813 813 813 814 813 813 813 814 815 816 818 818 818 818 817 815 814 815 816 817 817 818 819 819 820 821 822 823 824 826 826 827 828 829 829 828 828 830 832 833 836 838 841 843 844 846 847 849 850 851 852 852 853 853 854 854 855 855 856 857 858 859 859 859
810 810 810 811 811 811 812 812 812 812 812 812 812 812 811 811 811 811 811 811 812 811 811 811 811 810 810 812 814 813 813 815 817 817 817 816 814 811 811 813 814 814 815 816 817 818 818 819 820 822 823 824 825 826 828 829 828 827 828 829 831 833 835 838 840 842 844 846 847 849 850 851 851 852 852 853 853 853 854 855 856 857 858 858 859
809 809 809 809 809 810 810 810 810 810 810 810 810 810 810 810 809 809 809 809 809 809 808 808 808 807 807 809 810 810 811 812 812 813 814 814 813 810 809 811 812 813 813 814 815 815 816 816 817 818 819 821 822 824 825 827 827 826 826 827 829 830 833 835 837 839 841 844 846 847 849 850 850 851 851 852 852 852 853 853 855 856 857 858 858
807 808 808 808 808 808 808 809 809 809 809 809 809 809 809 808 808 807 807 807 806 806 805 805 805 805 805 805 806 806 807 808 807 809 810 810 810 809 807 808 809 810 811 811 811 812 813 813 814 814 816 818 820 820 822 824 825 826 825 825 827 828 830 832 834 837 839 842 844 846 847 848 849 850 851 852 852 852 852 852 854 855 856 857 858
806 806 807 807 807 807 807 807 807 807 807 807 807 807 806 806 806 805 805 804 804 803 803 802 802 802 802 802 803 803 804 804 804 805 806 807 807 806 805 806 807 808 810 811 810 810 810 810 811 811 812 814 816 817 818 820 822 824 824 823 825 827 829 831 833 835 838 840 842 844 846 847 848 849 850 851 852 852 852 852 853 854 855 856 857
805 805 805 806 806 806 806 806 805 805 805 805 805 804 804 804 803 803 802 802 802 801 800 799 799 799 799 799 799 800 800 801 802 802 803 804 805 804 804 805 806 806 809 811 811 810 809 808 809 809 809 810 812 813 814 816 818 821 822 822 823 825 827 829 831 834 836 838 840 842 844 845 847 848 849 850 851 851 851 851 852 853 854 855 856
804 804 804 804 804 804 804 804 804 803 803 803 802 802 802 801 801 800 800 799 799 799 798 797 797 797 797 797 796 797 797 798 799 800 801 802 802 803 804 804 804 805 807 810 811 810 809 807 807 807 807 807 808 809 810 812 815 818 820 820 822 824 826 828 830 833 835 836 839 840 842 844 845 846 848 849 850 850 850 851 851 852 852 853 854
802 803 803 803 803 802 802 802 802 801 801 800 800 799 799 799 798 798 797 797 796 796 796 795 795 795 795 795 795 795 795 795 796 797 798 799 800 801 803 804 805 805 805 806 808 807 807 807 806 805 805 804 805 806 807 808 812 815 817 818 820 823 825 827 829 831 833 835 837 839 840 842 843 845 847 848 848 849 849 850 850 851 852 852 853
801 801 801 801 801 801 800 800 800 799 799 798 798 797 797 797 796 795 795 794 794 793 793 792 792 792 792 792 792 793 793 793 793 794 795 796 798 799 801 802 804 805 804 804 804 804 804 806 806 804 803 802 802 803 804 806 810 812 814 816 818 821 823 826 828 830 832 834 836 837 839 840 842 844 845 846 847 848 848 849 850 850 851 851 852
799 800 800 800 799 799 799 798 798 797 797 796 796 796 795 795 794 794 793 792 792 791 790 790 789 790 790 789 790 790 790 791 791 792 793 794 795 797 798 799 801 803 804 804 801 799 800 802 805 805 802 800 799 799 800 803 807 809 812 814 816 818 821 824 826 828 831 833 834 836 838 839 840 842 843 845 846 847 847 848 849 849 850 850 851
798 798 798 798 798 797 797 796 796 795 795 794 794 794 793 793 792 792 791 790 790 789 788 787 787 787 787 787 787 786 787 788 789 789 790 791 792 794 795 796 798 798 800 801 798 796 798 799 800 803 802 798 797 796 797 800 803 806 808 812 814 816 819 822 824 827 829 831 833 835 836 837 839 840 842 844 845 846 847 847 848 848 849 849 850
797 797 797 796 796 796 795 795 794 794 793 793 792 792 791 791 790 789 789 789 788 786 786 785 785 784 784 784 784 783 784 784 785 786 787 787 789 790 792 793 794 795 796 798 795 793 796 796 796 800 802 800 796 794 796 798 800 803 805 808 812 815 817 820 823 826 828 829 831 833 834 835 837 839 841 842 844 845 846 846 847 847 848 848 848
795 795 795 794 794 794 794 793 792 792 791 791 790 790 789 789 788 787 787 787 786 785 784 783 783 782 781 781 781 780 781 781 781 783 783 784 785 786 788 789 790 791 793 794 792 790 792 794 794 796 800 802 799 794 794 797 799 802 804 806 808 812 815 818 821 824 826 827 829 831 832 834 835 837 839 841 842 843 844 845 846 846 846 847 847
794 794 793 793 793 792 792 792 791 790 790 789 789 788 788 787 786 786 785 785 784 783 782 781 781 780 779 778 778 778 778 778 778 779 780 781 782 782 784 785 785 787 789 789 789 788 789 791 793 794 796 800 801 797 795 797 799 801 803 805 807 809 811 814 819 822 824 826 827 829 831 832 834 836 837 839 841 842 843 844 844 845 845 846 846
793 792 792 792 791 791 790 790 789 789 788 787 787 786 786 785 784 784 783 783 782 781 780 779 779 778 777 776 775 775 775 775 775 775 776 777 778 778 780 781 781 782 784 785 786 786 786 788 791 793 793 795 800 800 797 796 797 799 801 804 806 809 810 811 815 820 823 825 826 828 830 831 832 834 836 838 839 840 841 842 843 843 844 845 845
791 791 791 790 790 789 788 788 787 787 786 786 785 785 784 783 782 782 781 780 780 779 778 778 777 777 775 773 773 773 773 772 772 772 772 773 775 775 775 776 777 777 779 780 782 783 783 785 788 790 791 792 796 799 798 796 796 797 799 802 805 807 809 810 813 817 821 823 825 827 829 830 831 833 835 836 837 839 840 841 841 842 843 843 844
790 790 789 789 788 788 787 786 785 785 784 784 784 783 782 782 780 779 779 778 778 777 776 776 775 775 774 772 771 771 770 770 769 769 769 770 771 771 772 772 773 773 774 776 777 779 780 782 783 785 787 789 792 795 796 795 795 795 797 800 803 806 807 809 812 816 819 822 825 826 827 829 830 832 833 834 836 837 838 839 840 841 842 842 843
788 788 788 787 787 786 785 784 784 783 782 782 782 781 780 780 779 777 777 776 775 775 774 773 773 772 772 770 770 769 768 767 767 767 766 766 767 768 768 769 769 769 770 772 773 775 776 777 779 781 783 785 788 790 791 792 793 795 798 800 802 804 806 808 810 814 817 820 823 824 826 828 829 830 831 832 833 835 836 838 839 839 840 841 841
786 786 786 785 785 784 783 782 782 781 780 780 780 779 778 778 777 775 774 773 773 772 771 771 770 770 769 768 768 767 766 765 764 764 764 764 764 764 764 765 766 766 766 767 769 770 772 773 775 777 778 780 784 786 786 787 788 791 796 800 803 803 804 806 808 811 815 817 819 822 823 825 827 828 829 830 831 833 834 836 837 838 839 839 840
785 784 784 783 783 782 781 780 780 779 778 778 778 777 776 775 775 774 772 771 770 769 769 768 767 767 766 766 765 764 763 762 762 762 761 761 760 760 760 761 762 763 763 763 764 766 768 769 772 773 774 776 779 782 782 783 786 788 792 796 800 802 803 804 805 807 811 814 816 819 821 823 825 826 827 828 829 831 832 833 835 836 837 837 838
783 782 782 781 780 780 779 778 777 777 776 776 775 775 774 773 773 772 770 770 768 767 766 765 764 763 763 762 761 761 761 760 759 759 759 759 758 757 757 757 758 759 759 760 761 762 764 765 767 769 771 773 775 778 781 781 783 786 788 790 793 795 798 801 804 805 807 810 813 815 818 820 822 824 825 826 827 828 830 831 832 834 834 835 836
781 780 780 779 778 777 777 776 775 774 774 773 773 773 772 771 771 770 768 768 766 765 764 763 762 760 759 759 758 757 757 757 756 756 756 756 756 755 754 755 755 755 755 756 756 758 760 761 762 764 767 769 771 774 777 777 778 780 783 786 789 791 794 799 803 804 804 806 808 811 813 815 817 819 821 822 823 825 827 828 830 831 832 833 834
779 778 778 777 776 776 775 774 773 772 771 771 770 770 770 769 769 768 766 765 764 763 762 760 759 758 757 756 754 754 753 753 753 752 752 752 751 751 751 751 752 753 753 753 753 754 755 756 758 759 760 762 765 767 770 772 774 776 779 782 785 789 794 798 802 805 805 805 806 807 809 812 814 815 817 818 819 821 823 824 826 828 830 831 832
777 776 776 775 775 774 774 773 772 771 770 769 769 768 768 768 767 766 764 763 762 761 760 759 757 756 754 753 752 751 750 749 749 749 748 748 747 747 747 747 748 749 750 750 750 751 752 751 753 755 754 755 758 761 764 769 772 773 774 776 780 784 789 792 796 799 800 801 802 804 806 808 810 812 813 814 816 818 819 822 824 827 828 829 830
775 774 774 773 773 773 773 772 771 770 768 768 767 766 766 765 765 763 762 760 759 758 757 756 755 754 752 751 749 748 747 746 746 745 744 744 743 743 743 743 743 744 745 746 747 749 749 748 749 751 750 750 753 755 758 763 767 770 772 774 775 778 781 784 787 789 791 795 798 800 802 805 807 809 810 811 813 815 818 820 823 825 827 828 829
773 772 772 772 772 772 771 770 769 768 767 766 765 764 763 762 761 760 758 757 756 754 753 753 752 751 750 749 747 745 744 744 743 742 741 741 740 740 739 738 738 738 739 740 742 745 747 746 745 744 745 748 750 752 754 758 762 766 769 771 771 773 775 777 779 781 785 790 794 796 799 801 803 806 807 809 811 813 816 818 821 823 825 826 827
770 770 770 770 770 770 770 768 767 765 764 763 762 761 760 759 758 757 755 754 752 750 749 749 748 747 746 746 744 742 742 741 740 739 739 738 737 736 735 734 733 732 733 735 736 738 741 743 742 741 742 745 746 747 751 754 755 757 760 761 764 769 772 774 777 781 784 786 789 792 796 798 801 804 805 807 809 811 814 816 818 821 822 823 824
768 768 768 768 768 768 767 766 764 762 761 760 759 758 757 756 755 754 752 750 748 746 745 744 744 743 742 742 740 738 738 738 737 737 736 736 734 732 731 730 729 728 728 729 730 732 734 736 737 738 739 741 742 744 747 749 751 752 753 754 758 765 772 776 779 781 783 786 787 789 792 794 798 801 803 805 807 809 811 814 816 818 819 821 822
766 766 767 766 766 765 764 763 761 759 757 757 756 755 754 753 752 750 748 746 744 741 740 739 739 738 737 737 735 734 734 733 733 734 734 733 732 729 728 727 726 724 723 723 725 726 728 730 732 734 736 738 740 743 744 746 749 751 755 758 761 766 771 775 778 779 780 783 786 787 788 791 795 798 801 804 805 807 809 812 814 815 817 818 820
765 766 766 765 764 763 761 760 758 756 754 753 753 751 750 749 748 745 744 742 740 737 735 735 734 733 732 731 730 729 728 728 729 731 731 731 730 727 725 724 724 722 720 719 721 721 722 724 726 728 731 734 736 739 741 742 745 748 753 756 758 761 765 768 772 775 776 779 782 785 787 789 791 796 799 802 803 805 807 810 812 813 815 816 818
763 764 764 763 762 760 759 757 756 753 751 750 749 748 746 746 744 742 739 737 735 733 731 730 729 728 727 726 726 725 723 723 725 727 728 729 727 724 723 722 721 719 717 717 717 716 717 719 720 722 726 729 732 734 736 739 741 744 747 749 751 754 757 760 765 770 774 777 780 783 786 787 790 794 797 800 803 805 806 808 811 812 813 815 816
762 762 761 760 759 758 757 755 753 751 748 746 746 744 742 742 740 738 736 733 729 728 726 725 723 722 721 720 720 719 718 719 721 722 723 725 723 720 721 720 717 715 715 715 714 712 713 715 716 719 721 723 727 730 733 735 737 740 742 744 746 749 751 754 759 765 771 774 776 780 783 784 787 791 793 796 801 804 805 807 809 810 811 812 813